HAWK55 KNKX-

Flight info

Callsign HAWK55
Flight time N/A
Altitude VFR
Route
Aircraft F35/M-SDFIRY/LB1

Departure

Time 2026-04-26 01:09
Airport Miramar Marine Corps Air Station - Mitscher Field (KNKX)

Arrival

Time N/A
Airport -
Time Latitude Longitude Altitude Speed Heading
2026-04-26 01:09 32.86457 -117.16531 967 ft 232 kts 256°
2026-04-26 01:09 32.86046 -117.18421 1201 ft 237 kts 255°
2026-04-26 01:10 32.85607 -117.20267 1599 ft 231 kts 253°
2026-04-26 01:10 32.85133 -117.22098 2079 ft 231 kts 252°
2026-04-26 01:10 32.84619 -117.23937 2566 ft 233 kts 251°
2026-04-26 01:10 32.84069 -117.25776 3039 ft 236 kts 249°
2026-04-26 01:11 32.83488 -117.27594 3538 ft 238 kts 249°
2026-04-26 01:11 32.82857 -117.29449 4042 ft 245 kts 248°
2026-04-26 01:11 32.82189 -117.31298 4539 ft 245 kts 246°
2026-04-26 01:11 32.81489 -117.33131 5126 ft 234 kts 245°
2026-04-26 01:12 32.80806 -117.34791 7253 ft 224 kts 244°
2026-04-26 01:12 32.80081 -117.36460 9798 ft 229 kts 242°
2026-04-26 01:12 32.79271 -117.38243 11423 ft 254 kts 240°
2026-04-26 01:12 32.78415 -117.40052 12181 ft 248 kts 239°
2026-04-26 01:13 32.77895 -117.42001 12994 ft 265 kts 264°
2026-04-26 01:13 32.78024 -117.44477 13810 ft 339 kts 271°
2026-04-26 01:13 32.78376 -117.47559 14236 ft 425 kts 274°
2026-04-26 01:13 32.78871 -117.51378 14450 ft 510 kts 275°
2026-04-26 01:14 32.79466 -117.55817 14553 ft 568 kts 276°
2026-04-26 01:14 32.80111 -117.60501 14572 ft 578 kts 276°
2026-04-26 01:14 32.80775 -117.65232 14572 ft 581 kts 276°
2026-04-26 01:14 32.81446 -117.69971 14550 ft 581 kts 276°
2026-04-26 01:15 32.82118 -117.74705 14525 ft 581 kts 276°
2026-04-26 01:15 32.82793 -117.79449 14511 ft 582 kts 276°
2026-04-26 01:15 32.83469 -117.84185 14511 ft 579 kts 276°
2026-04-26 01:15 32.84104 -117.88479 14498 ft 477 kts 276°
2026-04-26 01:16 32.84670 -117.92034 14462 ft 402 kts 276°
2026-04-26 01:16 32.85188 -117.95073 14162 ft 356 kts 276°
2026-04-26 01:16 32.85673 -117.97807 13374 ft 329 kts 276°
2026-04-26 01:16 32.86130 -118.00378 12542 ft 307 kts 277°
2026-04-26 01:17 32.86550 -118.02791 11737 ft 289 kts 277°
2026-04-26 01:17 32.86933 -118.05068 10956 ft 272 kts 277°
2026-04-26 01:17 32.87275 -118.07221 10198 ft 259 kts 277°
2026-04-26 01:17 32.87580 -118.09308 9413 ft 255 kts 277°
2026-04-26 01:18 32.87859 -118.11386 8609 ft 254 kts 277°
2026-04-26 01:18 32.88114 -118.13447 7838 ft 250 kts 277°
2026-04-26 01:18 32.88348 -118.15483 7086 ft 248 kts 277°
2026-04-26 01:18 32.88565 -118.17516 6359 ft 248 kts 276°
2026-04-26 01:19 32.88768 -118.19522 5597 ft 246 kts 276°
2026-04-26 01:19 32.88967 -118.21538 4847 ft 245 kts 276°
2026-04-26 01:19 32.89164 -118.23508 4549 ft 242 kts 276°
2026-04-26 01:19 32.89362 -118.25490 4509 ft 242 kts 276°
2026-04-26 01:20 32.89559 -118.27490 4491 ft 244 kts 276°
2026-04-26 01:20 32.89759 -118.29498 4477 ft 245 kts 276°
2026-04-26 01:20 32.89956 -118.31490 4484 ft 241 kts 276°
2026-04-26 01:20 32.90152 -118.33477 4472 ft 245 kts 276°
2026-04-26 01:21 32.90349 -118.35484 3748 ft 240 kts 276°
2026-04-26 01:21 32.90540 -118.37424 3069 ft 235 kts 276°
2026-04-26 01:21 32.90726 -118.39348 2741 ft 238 kts 276°
2026-04-26 01:21 32.90914 -118.41275 2620 ft 236 kts 276°
2026-04-26 01:22 32.91104 -118.43217 2557 ft 235 kts 276°
2026-04-26 01:22 32.91300 -118.45155 2518 ft 232 kts 276°
2026-04-26 01:22 32.91209 -118.47055 2536 ft 233 kts 248°
2026-04-26 01:22 32.90123 -118.48480 2540 ft 245 kts 209°
2026-04-26 01:23 32.88461 -118.48783 2552 ft 251 kts 171°
2026-04-26 01:23 32.86919 -118.47786 2579 ft 258 kts 133°
2026-04-26 01:23 32.86123 -118.45896 2582 ft 263 kts 96°
2026-04-26 01:23 32.86391 -118.43775 2593 ft 262 kts 59°
2026-04-26 01:24 32.87449 -118.42026 2535 ft 267 kts 46°
2026-04-26 01:24 32.88660 -118.40467 2532 ft 260 kts 45°
2026-04-26 01:24 32.89489 -118.38595 2528 ft 260 kts 76°
2026-04-26 01:24 32.89781 -118.36456 2543 ft 261 kts 83°
2026-04-26 01:25 32.89993 -118.34308 2528 ft 259 kts 74°
2026-04-26 01:25 32.90913 -118.32494 2544 ft 259 kts 37°
2026-04-26 01:25 32.92521 -118.31674 2559 ft 254 kts
2026-04-26 01:25 32.94157 -118.32153 2584 ft 246 kts 324°
2026-04-26 01:26 32.95448 -118.33427 2579 ft 239 kts 304°
2026-04-26 01:26 32.96316 -118.35105 2564 ft 237 kts 295°
2026-04-26 01:26 32.97048 -118.36871 2546 ft 239 kts 293°
2026-04-26 01:26 32.97716 -118.38630 2533 ft 236 kts 292°
2026-04-26 01:27 32.98373 -118.40432 2522 ft 236 kts 291°
2026-04-26 01:27 32.99018 -118.42242 2519 ft 238 kts 291°
2026-04-26 01:27 32.99654 -118.44045 2516 ft 236 kts 291°
2026-04-26 01:27 33.00078 -118.45910 2530 ft 236 kts 266°
2026-04-26 01:28 32.99468 -118.47696 2552 ft 242 kts 227°
2026-04-26 01:28 32.98152 -118.48919 2540 ft 232 kts 219°
2026-04-26 01:28 32.96975 -118.49994 2496 ft 198 kts 220°
2026-04-26 01:28 32.96036 -118.51196 2038 ft 198 kts 251°
2026-04-26 01:29 32.96113 -118.52745 1426 ft 196 kts 292°
2026-04-26 01:29 32.96818 -118.54111 1188 ft 193 kts 306°
2026-04-26 01:29 32.97743 -118.55283 1118 ft 195 kts 316°
2026-04-26 01:29 32.98796 -118.56164 1062 ft 172 kts 332°
2026-04-26 01:30 32.99869 -118.56715 1057 ft 162 kts 331°
2026-04-26 01:30 33.00843 -118.57091 1012 ft 148 kts
2026-04-26 01:30 33.01745 -118.56362 875 ft 170 kts 57°
2026-04-26 01:30 33.02129 -118.55047 1077 ft 156 kts 72°
2026-04-26 01:31 33.02687 -118.53747 2358 ft 205 kts 14°
2026-04-26 01:31 33.03431 -118.54532 3247 ft 166 kts 226°
2026-04-26 01:31 33.02489 -118.54011 2939 ft 229 kts 72°
2026-04-26 01:31 33.03491 -118.54125 2195 ft 234 kts 283°
2026-04-26 01:32 33.03664 -118.56069 1544 ft 224 kts 268°
2026-04-26 01:32 33.03481 -118.57743 1445 ft 184 kts 249°
2026-04-26 01:32 33.02416 -118.57602 1144 ft 227 kts 132°
2026-04-26 01:32 33.01347 -118.57018 1209 ft 128 kts 222°
2026-04-26 01:33 33.01086 -118.58143 1038 ft 171 kts 282°
2026-04-26 01:33 33.01273 -118.59596 1261 ft 238 kts 266°
2026-04-26 01:33 33.01067 -118.61743 1046 ft 241 kts 259°
2026-04-26 01:33 33.00086 -118.61718 1101 ft 240 kts 115°
2026-04-26 01:34 32.99391 -118.59837 1037 ft 248 kts 114°
2026-04-26 01:34 32.98637 -118.57997 1093 ft 261 kts 132°
2026-04-26 01:34 32.97218 -118.56777 954 ft 236 kts 150°
2026-04-26 01:34 32.95766 -118.55730 943 ft 249 kts 144°
2026-04-26 01:35 32.94129 -118.54083 1535 ft 375 kts 146°
2026-04-26 01:35 32.92013 -118.53607 2112 ft 267 kts 234°
2026-04-26 01:35 32.92325 -118.55155 831 ft 195 kts 322°
2026-04-26 01:35 32.93284 -118.56026 1514 ft 175 kts 273°
2026-04-26 01:36 32.92476 -118.56191 2299 ft 218 kts 102°
2026-04-26 01:36 32.93540 -118.54719 1922 ft 288 kts 30°
2026-04-26 01:36 32.95311 -118.53453 1908 ft 301 kts 25°
2026-04-26 01:37 32.99393 -118.51641 1426 ft 314 kts
2026-04-26 01:37 33.01575 -118.51591 1575 ft 316 kts 348°
2026-04-26 01:37 33.03510 -118.52683 1495 ft 319 kts 306°
2026-04-26 01:37 33.03573 -118.55191 1463 ft 324 kts 247°
2026-04-26 01:38 33.02690 -118.57719 1026 ft 331 kts 252°
2026-04-26 01:38 33.03669 -118.58506 936 ft 205 kts 45°
2026-04-26 01:38 33.04340 -118.57112 965 ft 191 kts 73°
2026-04-26 01:38 33.03940 -118.55859 834 ft 176 kts 178°
2026-04-26 01:39 33.03089 -118.56637 510 ft 162 kts 243°
2026-04-26 01:39 33.02779 -118.57433 227 ft 157 kts 248°
2026-04-26 01:39 33.02169 -118.59182 338 ft 251 kts 243°
2026-04-26 01:39 33.00546 -118.58863 622 ft 346 kts 144°
2026-04-26 01:40 32.98342 -118.56908 829 ft 416 kts 142°
2026-04-26 01:40 32.96261 -118.54703 1149 ft 388 kts 139°
2026-04-26 01:40 32.95676 -118.52601 1653 ft 206 kts
2026-04-26 01:40 32.96438 -118.52970 1791 ft 175 kts 311°
2026-04-26 01:41 32.96732 -118.54752 1868 ft 196 kts 243°
2026-04-26 01:41 32.96062 -118.55482 1295 ft 205 kts 199°
2026-04-26 01:41 32.94655 -118.55404 756 ft 237 kts 195°
2026-04-26 01:41 32.95049 -118.55788 490 ft 219 kts 106°
2026-04-26 01:42 32.94569 -118.54435 869 ft 198 kts 29°
2026-04-26 01:42 32.94987 -118.55155 930 ft 197 kts 192°
2026-04-26 01:42 32.94449 -118.54480 2950 ft 130 kts 20°
2026-04-26 01:42 32.95222 -118.54575 2410 ft 238 kts 311°
2026-04-26 01:43 32.95514 -118.56513 1980 ft 249 kts 272°
2026-04-26 01:43 32.95579 -118.58627 1787 ft 260 kts 271°
2026-04-26 01:43 32.95622 -118.60791 1778 ft 262 kts 268°
2026-04-26 01:43 32.94511 -118.60995 1421 ft 262 kts 132°
2026-04-26 01:44 32.93419 -118.59266 1847 ft 246 kts 128°
2026-04-26 01:44 32.92682 -118.57450 1691 ft 247 kts 97°
2026-04-26 01:44 32.92961 -118.55434 1636 ft 247 kts 63°
2026-04-26 01:44 32.93818 -118.53652 1598 ft 245 kts 55°
2026-04-26 01:45 32.94586 -118.51859 1552 ft 237 kts 79°
2026-04-26 01:45 32.94376 -118.50002 1580 ft 234 kts 119°
2026-04-26 01:45 32.93231 -118.48698 1576 ft 230 kts 161°
2026-04-26 01:45 32.91707 -118.48587 1774 ft 219 kts 201°
2026-04-26 01:46 32.90383 -118.49465 1935 ft 223 kts 217°
2026-04-26 01:46 32.89194 -118.50570 2028 ft 215 kts 236°
2026-04-26 01:46 32.88789 -118.52210 2103 ft 211 kts 278°
2026-04-26 01:46 32.89398 -118.53794 2093 ft 214 kts 304°
2026-04-26 01:47 32.90323 -118.55206 2059 ft 216 kts 309°
2026-04-26 01:47 32.91456 -118.56356 2072 ft 223 kts 337°
2026-04-26 01:47 32.93009 -118.56503 2074 ft 232 kts
2026-04-26 01:47 32.94584 -118.56200 2046 ft 231 kts
2026-04-26 01:48 32.96123 -118.55812 2039 ft 229 kts 11°
2026-04-26 01:48 32.97670 -118.55388 2040 ft 230 kts 11°
2026-04-26 01:48 32.99206 -118.54951 1984 ft 223 kts 11°
2026-04-26 01:48 33.00740 -118.54515 1971 ft 224 kts 11°
2026-04-26 01:49 33.02282 -118.54066 1983 ft 226 kts 11°
2026-04-26 01:49 33.03824 -118.53611 1991 ft 230 kts 11°
2026-04-26 01:49 33.05129 -118.52823 2168 ft 211 kts 100°
2026-04-26 01:49 33.04291 -118.52902 1650 ft 232 kts 256°
2026-04-26 01:50 33.03530 -118.55439 1335 ft 401 kts 247°
2026-04-26 01:50 33.02361 -118.58706 938 ft 440 kts 261°
2026-04-26 01:50 33.04099 -118.59395 1316 ft 336 kts 43°
2026-04-26 01:50 33.05230 -118.57309 1518 ft 269 kts 73°
2026-04-26 01:51 33.05058 -118.55605 1446 ft 176 kts 136°
2026-04-26 01:51 33.04040 -118.55435 1122 ft 148 kts 214°
2026-04-26 01:51 33.03282 -118.56240 658 ft 150 kts 234°
2026-04-26 01:51 33.02826 -118.57269 254 ft 131 kts 249°
2026-04-26 01:52 33.02514 -118.58151 150 ft 87 kts 247°
2026-04-26 01:52 33.02350 -118.58621 135 ft 27 kts 247°
2026-04-26 01:52 33.02233 -118.58611 133 ft 19 kts 155°
2026-04-26 01:52 33.02214 -118.58531 135 ft 14 kts 134°
2026-04-26 01:53 33.02096 -118.58512 134 ft 20 kts 196°
2026-04-26 01:53 33.02059 -118.58525 133 ft 0 kts 197°